Temp
66 68 68 69 69 68 68 67 67 67 67 67 66 65 64 64 65 66 66 66 67 67 68 68 68 68 68 67 67 67 67 67 67 67 68 68 67 66 65 64 64 63 62 61 60 60 59 58 58 59 62 73
64 65 66 66 66 66 66 66 65 65 64 64 63 62 61 62 63 64 64 65 65 65 65 65 66 68 68 67 66 66 66 67 67 67 67 66 65 65 63 63 63 62 61 60 59 59 58 57 57 59 63 72
66 62 63 64 64 64 63 63 63 62 61 61 60 59 60 60 61 61 62 62 62 62 62 62 65 64 67 66 66 66 66 66 66 66 66 65 64 63 62 62 62 60 60 59 59 57 57 57 58 60 67 71
70 63 61 62 61 61 62 61 60 59 59 57 58 58 59 60 64 64 65 62 64 60 60 59 61 62 66 66 66 65 65 65 65 65 65 64 63 62 61 60 59 58 58 58 58 57 56 57 60 69 71 69
69 65 61 62 60 60 60 60 59 58 58 59 58 60 60 62 68 68 68 68 67 62 63 58 58 59 62 66 65 64 64 64 64 64 64 63 60 58 57 57 56 56 56 56 56 56 56 58 68 68 68 69
67 66 66 67 67 66 63 61 61 64 65 59 64 60 65 68 69 68 67 67 61 67 65 61 56 57 59 62 63 62 61 63 64 63 62 60 58 56 56 56 63 61 57 55 55 55 56 66 68 67 68 68
67 68 69 68 67 65 62 61 61 63 65 66 66 67 68 69 68 67 66 63 59 60 56 58 55 55 56 58 59 60 59 58 59 60 59 57 56 56 56 61 62 63 62 62 57 59 64 66 66 66 66 68
69 69 69 69 67 66 65 63 62 64 65 66 66 67 69 68 66 66 65 54 52 56 65 61 56 55 56 56 56 57 60 58 56 56 55 54 55 58 60 62 62 63 63 63 64 65 65 65 64 65 66 67
68 68 69 68 67 65 65 64 65 65 65 65 65 67 68 66 65 65 66 65 66 66 65 65 65 64 64 63 62 58 62 63 60 61 61 61 59 62 60 61 61 62 62 63 63 64 64 64 64 65 65 66
67 67 68 67 67 66 65 63 63 63 64 65 65 66 65 65 64 64 64 63 62 62 62 62 62 63 63 62 61 62 63 62 62 61 61 60 60 61 61 59 60 60 61 62 62 63 62 63 64 64 65 65
66 68 68 68 68 66 64 63 63 63 64 65 65 65 64 65 64 64 62 60 58 57 59 58 59 60 62 62 62 63 62 60 61 61 61 60 59 59 59 58 58 58 59 59 60 61 60 61 62 63 64 64
67 67 67 66 65 66 63 63 63 63 62 61 63 64 66 65 64 62 60 58 57 56 58 57 58 59 60 61 61 62 62 60 61 60 60 59 58 59 59 58 58 59 60 58 59 59 59 60 62 62 63 63
67 66 66 66 66 65 61 65 63 60 58 58 58 58 59 61 60 59 57 57 57 58 57 58 59 60 60 60 61 61 61 61 60 60 60 59 59 59 59 59 58 58 59 60 60 59 58 59 60 60 61 62
65 65 64 64 65 64 63 62 58 57 57 56 55 53 54 55 58 59 58 56 57 57 56 57 57 59 59 59 60 61 60 60 60 60 59 58 58 59 58 59 58 58 58 59 59 59 58 58 60 60 60 60
64 64 64 63 63 62 62 59 58 57 55 55 54 52 50 52 54 56 57 56 56 56 56 57 58 58 58 59 59 60 59 59 59 59 59 58 59 59 59 59 58 58 58 58 58 58 57 58 59 59 60 60
62 62 61 61 62 60 58 58 58 56 54 51 50 50 50 52 53 54 54 53 53 55 55 56 57 57 58 58 58 59 58 58 58 58 57 56 56 56 57 58 58 58 58 58 58 58 57 57 58 59 59 59
61 60 59 59 59 58 57 58 57 56 54 52 50 49 49 50 52 54 54 53 53 53 54 53 53 55 57 58 58 57 55 55 56 57 57 56 56 57 57 57 57 55 57 57 57 57 57 58 57 58 58 59
60 59 58 58 58 57 57 58 55 54 53 51 49 48 48 51 51 50 52 52 50 52 53 51 51 53 55 56 55 56 56 56 57 57 56 56 57 55 56 56 57 57 56 57 57 57 56 56 58 58 57 58
59 58 58 57 56 56 55 55 54 53 52 50 49 49 49 49 49 49 49 50 51 49 50 50 50 50 53 54 54 56 56 57 57 57 56 57 56 56 56 56 56 55 56 56 56 56 57 57 58 57 56 57
57 57 56 54 52 54 53 53 52 51 50 50 51 51 50 50 50 49 48 49 49 50 50 50 50 51 51 50 53 54 54 55 56 56 55 55 55 54 55 55 55 56 55 55 55 56 56 56 56 56 57 56
53 53 53 53 52 51 50 50 49 50 51 51 51 52 51 51 51 50 49 50 50 50 49 49 49 49 49 50 51 52 53 54 56 55 53 55 54 54 53 54 53 54 55 54 55 55 54 55 55 55 56 57
52 52 51 50 49 48 48 47 49 49 49 49 50 50 50 51 51 51 50 50 50 50 48 48 48 47 47 48 49 51 52 53 54 54 54 53 54 54 53 53 53 53 54 53 52 53 54 54 55 55 56 56
52 52 51 49 48 46 46 45 45 46 45 45 46 46 46 47 49 49 49 49 51 51 51 49 47 47 46 48 47 48 49 51 51 51 52 51 52 52 51 51 52 51 51 50 50 51 53 54 55 55 55 55
53 53 50 48 47 46 45 44 42 43 43 43 42 42 43 43 44 44 45 46 48 49 49 50 49 47 47 47 47 46 46 48 47 46 47 49 48 48 49 50 51 51 50 50 50 50 52 54 54 54 54 54
54 50 48 47 45 43 43 43 43 42 41 40 40 40 41 41 41 41 41 42 43 44 45 48 48 48 47 47 46 45 44 44 43 44 44 45 47 46 46 48 49 48 48 47 48 52 52 53 54 53 53 54
49 49 48 45 43 42 42 41 40 39 40 39 38 39 39 39 39 39 39 40 40 40 41 42 44 44 44 44 45 44 43 42 42 43 43 44 45 48 45 45 47 46 46 45 45 45 46 48 53 54 53 52
44 45 46 45 43 41 39 41 40 39 39 39 38 37 37 38 38 38 38 38 38 37 37 38 40 40 41 41 41 41 41 41 40 40 39 39 40 42 46 45 46 44 46 40 42 41 39 43 46 49 49 52
43 42 43 43 42 42 42 40 40 40 39 38 38 36 36 36 36 36 36 37 37 36 35 35 35 37 37 38 39 39 38 37 36 37 37 38 37 38 37 40 42 45 43 40 40 38 40 40 39 39 47 48
43 44 43 42 42 42 40 40 39 38 36 37 36 35 35 34 35 35 35 35 35 36 35 34 34 34 35 35 36 37 36 36 36 36 36 36 37 37 36 36 40 42 44 39 41 38 38 39 39 38 43 45
40 39 39 39 38 37 36 33 33 32 32 33 33 33 35 34 34 34 34 34 34 34 34 33 33 33 31 31 32 35 35 35 36 35 34 36 37 38 39 36 37 38 40 40 38 38 41 39 37 37 39 40
38 37 36 35 34 34 33 32 32 34 34 34 34 34 34 34 33 33 33 33 33 33 33 33 33 32 33 33 32 32 31 30 32 33 34 35 35 36 37 36 35 35 38 40 40 38 38 37 37 37 35 35
MSLP
1020.33 1020.53 1020.77 1021.01 1021.21 1021.41 1021.53 1021.69 1021.85 1022.01 1022.21 1022.41 1022.61 1022.73 1022.85 1022.77 1022.81 1022.81 1022.77 1022.77 1022.73 1022.77 1022.85 1023.05 1023.13 1023.21 1023.37 1023.53 1023.65 1023.73 1023.77 1023.77 1023.81 1023.81 1023.69 1023.69 1023.81 1024.01 1024.25 1024.33 1024.37 1024.41 1024.41 1024.29 1024.25 1024.21 1024.17 1024.09 1023.97 1023.73 1023.37 1023.05
1020.45 1020.65 1020.89 1021.17 1021.41 1021.53 1021.69 1021.81 1022.05 1022.21 1022.33 1022.53 1022.69 1022.85 1023.01 1023.09 1023.13 1023.13 1023.13 1023.13 1023.09 1023.09 1023.17 1023.25 1023.29 1023.37 1023.49 1023.69 1023.81 1023.89 1023.89 1023.89 1023.89 1023.93 1023.93 1024.01 1024.21 1024.33 1024.49 1024.53 1024.57 1024.65 1024.57 1024.53 1024.49 1024.49 1024.41 1024.33 1024.17 1023.89 1023.57 1023.21
1020.69 1020.85 1021.09 1021.41 1021.61 1021.81 1021.93 1022.05 1022.13 1022.37 1022.61 1022.73 1022.81 1022.97 1023.09 1023.25 1023.33 1023.37 1023.41 1023.45 1023.45 1023.45 1023.53 1023.53 1023.53 1023.61 1023.69 1023.81 1023.93 1024.01 1024.05 1024.13 1024.13 1024.17 1024.21 1024.37 1024.49 1024.61 1024.65 1024.73 1024.77 1024.85 1024.77 1024.73 1024.73 1024.73 1024.65 1024.53 1024.29 1024.05 1023.65 1023.53
1020.77 1021.09 1021.33 1021.57 1021.77 1021.93 1022.09 1022.29 1022.33 1022.49 1022.77 1022.93 1023.01 1023.13 1023.17 1023.25 1023.37 1023.45 1023.53 1023.65 1023.69 1023.77 1023.81 1023.85 1023.81 1023.85 1023.85 1023.97 1024.09 1024.21 1024.33 1024.37 1024.41 1024.45 1024.53 1024.61 1024.77 1024.85 1024.93 1024.97 1025.09 1025.09 1024.97 1024.97 1024.93 1024.89 1024.81 1024.61 1024.37 1024.01 1023.85 1023.89
1020.89 1021.25 1021.53 1021.73 1021.85 1021.97 1022.17 1022.37 1022.45 1022.49 1022.81 1023.05 1023.21 1023.21 1023.29 1023.25 1023.33 1023.45 1023.57 1023.65 1023.77 1023.93 1024.05 1024.13 1024.13 1024.09 1024.09 1024.13 1024.25 1024.45 1024.57 1024.61 1024.61 1024.73 1024.77 1024.93 1025.17 1025.33 1025.33 1025.29 1025.33 1025.29 1025.25 1025.21 1025.17 1025.09 1024.93 1024.69 1024.29 1024.33 1024.25 1024.13
1021.09 1021.37 1021.49 1021.69 1021.81 1021.89 1022.21 1022.41 1022.49 1022.49 1022.65 1023.01 1023.17 1023.25 1023.21 1023.21 1023.33 1023.49 1023.73 1023.85 1023.93 1023.97 1024.09 1024.33 1024.41 1024.45 1024.41 1024.41 1024.53 1024.73 1024.89 1024.89 1024.85 1024.97 1025.09 1025.29 1025.49 1025.61 1025.53 1025.49 1025.13 1025.13 1025.37 1025.41 1025.37 1025.25 1025.05 1024.65 1024.53 1024.57 1024.49 1024.41
1021.21 1021.25 1021.49 1021.73 1021.93 1022.09 1022.25 1022.45 1022.53 1022.61 1022.73 1022.89 1023.05 1023.13 1023.13 1023.21 1023.41 1023.61 1023.85 1024.17 1024.29 1024.33 1024.49 1024.61 1024.65 1024.77 1024.85 1024.89 1024.93 1025.01 1025.17 1025.37 1025.37 1025.41 1025.57 1025.73 1025.81 1025.77 1025.69 1025.37 1025.25 1025.17 1025.21 1025.25 1025.41 1025.21 1024.97 1024.81 1024.81 1024.77 1024.69 1024.57
1021.09 1021.21 1021.41 1021.65 1021.93 1022.13 1022.29 1022.49 1022.69 1022.77 1022.81 1022.93 1023.05 1023.13 1023.13 1023.33 1023.65 1023.77 1024.05 1024.53 1024.49 1024.37 1024.33 1024.69 1024.85 1024.97 1025.09 1025.21 1025.33 1025.29 1025.33 1025.61 1025.77 1025.89 1025.97 1026.01 1025.97 1025.69 1025.53 1025.37 1025.33 1025.29 1025.25 1025.21 1025.13 1025.05 1024.97 1024.97 1025.01 1024.93 1024.81 1024.73
1021.05 1021.25 1021.41 1021.65 1021.97 1022.21 1022.41 1022.57 1022.69 1022.85 1022.97 1023.09 1023.13 1023.17 1023.25 1023.53 1023.77 1023.85 1023.93 1024.13 1024.29 1024.33 1024.45 1024.53 1024.65 1024.81 1024.89 1025.09 1025.33 1025.45 1025.37 1025.45 1025.73 1025.73 1025.81 1025.81 1025.77 1025.57 1025.61 1025.53 1025.53 1025.45 1025.37 1025.33 1025.25 1025.17 1025.13 1025.13 1025.13 1025.05 1024.97 1024.93
1021.13 1021.33 1021.49 1021.77 1022.01 1022.25 1022.53 1022.77 1022.93 1023.01 1023.09 1023.17 1023.21 1023.25 1023.45 1023.65 1023.85 1024.05 1024.21 1024.45 1024.61 1024.73 1024.77 1024.81 1024.89 1024.97 1025.09 1025.25 1025.41 1025.45 1025.41 1025.53 1025.65 1025.73 1025.77 1025.81 1025.81 1025.77 1025.77 1025.85 1025.81 1025.77 1025.61 1025.49 1025.41 1025.33 1025.41 1025.29 1025.21 1025.13 1025.09 1025.09
1021.21 1021.33 1021.49 1021.69 1021.97 1022.21 1022.61 1022.81 1022.97 1023.05 1023.13 1023.17 1023.33 1023.41 1023.57 1023.65 1023.89 1024.17 1024.41 1024.73 1024.89 1025.01 1025.01 1025.13 1025.17 1025.21 1025.25 1025.33 1025.37 1025.45 1025.53 1025.73 1025.77 1025.77 1025.81 1025.85 1025.97 1026.01 1026.05 1026.05 1026.05 1025.97 1025.93 1025.81 1025.73 1025.61 1025.61 1025.53 1025.41 1025.29 1025.29 1025.25
1021.21 1021.37 1021.61 1021.85 1022.17 1022.25 1022.61 1022.81 1022.97 1023.13 1023.21 1023.41 1023.49 1023.53 1023.57 1023.69 1023.93 1024.21 1024.57 1024.85 1024.97 1025.09 1025.13 1025.29 1025.41 1025.41 1025.45 1025.49 1025.53 1025.53 1025.57 1025.73 1025.77 1025.85 1025.93 1026.05 1026.13 1026.09 1026.13 1026.13 1026.17 1026.01 1025.97 1025.97 1025.89 1025.81 1025.77 1025.73 1025.53 1025.49 1025.45 1025.41
1021.25 1021.49 1021.73 1021.93 1022.09 1022.33 1022.73 1022.77 1023.05 1023.33 1023.53 1023.69 1023.81 1023.93 1024.01 1024.01 1024.25 1024.49 1024.69 1024.89 1024.97 1025.05 1025.25 1025.37 1025.41 1025.45 1025.53 1025.65 1025.65 1025.65 1025.69 1025.77 1025.85 1025.89 1026.01 1026.09 1026.09 1026.13 1026.13 1026.09 1026.13 1026.13 1026.09 1025.97 1025.93 1025.89 1025.93 1025.85 1025.73 1025.69 1025.57 1025.57
1021.41 1021.65 1021.89 1022.05 1022.21 1022.53 1022.81 1023.01 1023.41 1023.61 1023.77 1023.97 1024.13 1024.33 1024.37 1024.45 1024.45 1024.49 1024.69 1024.97 1025.09 1025.13 1025.37 1025.49 1025.61 1025.57 1025.65 1025.69 1025.73 1025.73 1025.73 1025.85 1025.89 1025.93 1026.09 1026.21 1026.25 1026.21 1026.25 1026.13 1026.17 1026.17 1026.05 1026.09 1026.09 1026.01 1025.97 1025.97 1025.81 1025.73 1025.69 1025.69
1021.61 1021.77 1021.93 1022.21 1022.45 1022.69 1022.93 1023.33 1023.57 1023.77 1024.01 1024.17 1024.37 1024.57 1024.69 1024.73 1024.77 1024.81 1024.93 1025.09 1025.29 1025.33 1025.45 1025.53 1025.57 1025.61 1025.73 1025.73 1025.77 1025.81 1025.85 1026.01 1026.05 1026.13 1026.13 1026.21 1026.21 1026.13 1026.17 1026.17 1026.25 1026.21 1026.05 1026.09 1026.13 1026.17 1026.13 1026.05 1025.93 1025.85 1025.81 1025.77
1021.89 1022.05 1022.25 1022.49 1022.69 1023.01 1023.33 1023.49 1023.73 1024.01 1024.25 1024.53 1024.73 1024.89 1024.97 1025.01 1025.09 1025.17 1025.29 1025.45 1025.57 1025.61 1025.61 1025.65 1025.69 1025.77 1025.77 1025.69 1025.89 1025.93 1026.01 1026.13 1026.25 1026.29 1026.41 1026.61 1026.61 1026.53 1026.37 1026.25 1026.25 1026.29 1026.09 1026.01 1026.01 1026.09 1026.21 1026.17 1026.05 1025.89 1025.85 1025.81
1022.05 1022.29 1022.57 1022.73 1022.97 1023.33 1023.57 1023.69 1023.93 1024.25 1024.57 1024.85 1025.09 1025.29 1025.37 1025.41 1025.45 1025.45 1025.53 1025.69 1025.77 1025.85 1025.85 1025.97 1026.01 1025.93 1025.89 1025.85 1025.93 1026.09 1026.33 1026.45 1026.45 1026.41 1026.45 1026.53 1026.61 1026.45 1026.37 1026.29 1026.21 1026.37 1026.21 1026.05 1026.05 1026.13 1026.13 1026.05 1026.01 1025.97 1025.89 1025.85
1022.21 1022.53 1022.77 1023.01 1023.29 1023.61 1023.73 1023.93 1024.25 1024.57 1024.85 1025.21 1025.49 1025.69 1025.81 1025.77 1025.85 1025.93 1025.93 1025.97 1026.09 1026.05 1026.05 1026.17 1026.21 1026.17 1026.05 1026.05 1026.21 1026.25 1026.33 1026.29 1026.25 1026.25 1026.37 1026.37 1026.29 1026.29 1026.25 1026.09 1026.09 1026.05 1026.01 1025.93 1026.05 1026.09 1026.17 1026.21 1026.01 1025.97 1026.01 1025.89
1022.49 1022.77 1023.01 1023.25 1023.57 1023.89 1024.09 1024.33 1024.61 1024.97 1025.29 1025.57 1025.81 1025.93 1026.05 1026.17 1026.25 1026.37 1026.45 1026.41 1026.33 1026.41 1026.41 1026.45 1026.45 1026.45 1026.25 1026.29 1026.33 1026.25 1026.25 1026.21 1026.21 1026.25 1026.29 1026.25 1026.21 1026.17 1026.17 1026.17 1026.13 1026.21 1026.09 1026.01 1026.09 1026.09 1026.09 1026.09 1026.01 1026.13 1026.05 1025.97
1022.85 1023.05 1023.41 1023.77 1024.05 1024.33 1024.57 1024.77 1025.09 1025.37 1025.61 1025.77 1025.85 1025.97 1026.17 1026.33 1026.41 1026.49 1026.61 1026.65 1026.65 1026.57 1026.65 1026.65 1026.57 1026.53 1026.61 1026.69 1026.53 1026.37 1026.41 1026.45 1026.29 1026.25 1026.37 1026.37 1026.45 1026.25 1026.13 1026.13 1026.13 1026.09 1026.17 1026.09 1026.13 1026.09 1026.09 1026.01 1026.05 1025.97 1025.85 1025.89
1023.29 1023.53 1023.85 1024.13 1024.49 1024.77 1025.01 1025.25 1025.57 1025.73 1025.89 1025.97 1026.05 1026.17 1026.33 1026.45 1026.57 1026.69 1026.77 1026.81 1026.85 1026.77 1026.89 1026.89 1026.85 1026.97 1027.01 1026.85 1026.69 1026.57 1026.57 1026.53 1026.33 1026.37 1026.57 1026.41 1026.53 1026.57 1026.37 1026.25 1026.25 1026.17 1026.09 1026.09 1026.13 1026.09 1026.09 1026.05 1026.01 1025.89 1025.73 1025.69
1023.61 1023.93 1024.21 1024.61 1024.97 1025.29 1025.53 1025.81 1025.97 1026.17 1026.29 1026.45 1026.57 1026.69 1026.77 1026.81 1026.81 1026.89 1026.93 1026.93 1026.89 1026.85 1027.01 1027.05 1027.09 1027.17 1027.33 1027.25 1027.05 1026.81 1026.65 1026.53 1026.57 1026.57 1026.49 1026.41 1026.49 1026.61 1026.57 1026.33 1026.21 1026.21 1026.13 1026.29 1026.33 1026.17 1026.05 1025.93 1025.85 1025.73 1025.65 1025.57
1023.85 1024.13 1024.49 1024.89 1025.29 1025.65 1026.01 1026.37 1026.69 1026.81 1026.97 1027.17 1027.33 1027.49 1027.61 1027.49 1027.33 1027.37 1027.29 1027.21 1027.05 1026.93 1026.89 1027.01 1027.21 1027.33 1027.49 1027.41 1027.41 1027.25 1026.97 1026.77 1026.85 1026.85 1026.77 1026.73 1026.61 1026.81 1026.89 1026.73 1026.57 1026.57 1026.57 1026.65 1026.45 1026.29 1025.97 1025.73 1025.61 1025.53 1025.49 1025.57
1023.77 1024.01 1024.45 1025.01 1025.45 1025.89 1026.49 1026.97 1027.29 1027.49 1027.77 1028.05 1028.25 1028.45 1028.29 1028.21 1028.13 1028.09 1027.97 1027.77 1027.57 1027.41 1027.25 1027.17 1027.25 1027.37 1027.53 1027.61 1027.61 1027.57 1027.37 1027.17 1027.21 1027.41 1027.25 1027.01 1027.05 1027.05 1027.01 1027.01 1026.89 1026.81 1026.77 1026.49 1026.33 1026.09 1025.77 1025.45 1025.37 1025.37 1025.37 1025.33
1023.69 1024.25 1024.85 1025.37 1025.89 1026.57 1027.09 1027.45 1027.81 1028.17 1028.61 1028.81 1029.01 1029.01 1028.89 1028.85 1028.77 1028.77 1028.61 1028.49 1028.33 1028.21 1027.97 1027.73 1027.69 1027.65 1027.69 1027.73 1027.85 1027.85 1027.89 1027.97 1027.97 1027.93 1027.85 1027.61 1027.37 1027.33 1027.29 1026.97 1026.89 1027.05 1027.01 1026.65 1025.97 1025.33 1025.13 1025.01 1024.93 1025.01 1025.01 1024.81
1024.81 1024.89 1025.25 1025.81 1026.65 1027.13 1027.65 1028.01 1028.33 1028.77 1029.09 1029.37 1029.53 1029.53 1029.49 1029.45 1029.45 1029.37 1029.29 1029.25 1029.13 1029.05 1028.89 1028.65 1028.41 1028.37 1028.37 1028.33 1028.21 1028.25 1028.29 1028.33 1028.25 1028.17 1028.13 1027.93 1027.41 1027.17 1027.37 1027.21 1027.09 1027.29 1027.13 1026.49 1025.89 1025.93 1025.45 1025.05 1024.45 1024.25 1024.53 1024.61
1025.89 1026.09 1026.33 1026.53 1027.25 1027.65 1028.29 1028.77 1029.05 1029.29 1029.65 1029.81 1029.93 1030.05 1030.09 1030.09 1030.05 1029.97 1029.93 1029.89 1029.85 1029.81 1029.77 1029.65 1029.41 1029.29 1029.17 1029.13 1029.01 1028.73 1028.69 1028.69 1028.69 1028.69 1028.65 1028.57 1028.29 1027.77 1027.37 1027.33 1027.29 1027.45 1027.29 1027.09 1026.57 1026.33 1026.29 1025.09 1024.29 1023.89 1024.33 1024.17
1027.01 1027.13 1027.29 1027.45 1027.77 1028.09 1028.25 1028.85 1029.29 1029.53 1029.81 1030.05 1030.17 1030.37 1030.65 1030.69 1030.69 1030.69 1030.61 1030.57 1030.45 1030.45 1030.53 1030.49 1030.41 1030.17 1030.01 1029.89 1029.73 1029.53 1029.45 1029.45 1029.49 1029.37 1029.21 1029.05 1028.77 1028.53 1028.21 1027.41 1027.25 1027.53 1027.65 1027.45 1027.17 1026.65 1025.29 1025.61 1025.65 1025.13 1023.45 1023.97
1027.53 1027.53 1027.57 1027.81 1028.13 1028.37 1028.69 1029.01 1029.29 1029.57 1029.97 1030.41 1030.77 1030.93 1031.05 1031.33 1031.37 1031.29 1031.25 1031.17 1031.13 1031.05 1031.09 1031.09 1031.05 1030.93 1030.77 1030.61 1030.41 1030.17 1030.05 1030.01 1030.01 1030.05 1029.85 1029.61 1029.21 1028.93 1028.73 1028.37 1027.89 1027.61 1027.65 1027.77 1027.61 1027.49 1026.89 1025.77 1025.13 1024.61 1024.09 1024.69
1028.37 1028.37 1028.33 1028.29 1028.29 1028.57 1029.01 1029.65 1030.05 1030.49 1030.93 1031.09 1031.21 1031.45 1031.77 1031.89 1031.89 1031.85 1031.85 1031.85 1031.77 1031.69 1031.61 1031.57 1031.57 1031.49 1031.33 1031.17 1030.97 1030.89 1030.81 1030.73 1030.49 1030.45 1030.33 1030.09 1029.73 1029.25 1029.01 1028.81 1028.09 1027.73 1027.37 1027.61 1027.77 1027.81 1027.57 1027.25 1026.89 1026.53 1025.97 1026.13
1029.09 1029.13 1029.33 1029.45 1029.65 1029.81 1030.01 1030.41 1031.09 1031.37 1031.49 1031.57 1031.81 1031.97 1032.05 1032.25 1032.41 1032.45 1032.41 1032.41 1032.41 1032.37 1032.29 1032.21 1032.13 1032.01 1031.89 1031.77 1031.61 1031.49 1031.41 1031.37 1031.21 1031.09 1031.01 1030.77 1030.45 1030.05 1029.65 1029.41 1028.81 1028.49 1028.01 1027.61 1027.37 1027.77 1027.93 1027.97 1027.89 1027.73 1027.61 1026.73
Wind_Speed
12 12 11 10 10 12 15 15 16 16 14 15 15 14 14 14 15 16 18 17 18 14 14 10 10 9 10 9 9 8 6 6 6 6 6 6 6 7 7 7 7 6 7 9 10 10 9 8 8 7 7 3
12 12 13 11 11 13 13 15 15 14 14 13 13 13 13 13 13 16 15 15 16 15 14 13 10 8 10 10 8 7 6 6 6 6 6 6 7 7 7 7 6 7 8 10 10 9 9 8 7 6 6 3
10 12 13 13 14 13 13 11 14 14 12 11 11 12 12 12 12 13 13 14 14 15 15 11 12 9 9 9 7 6 6 6 6 6 6 6 6 6 7 7 7 7 9 10 9 9 8 7 6 5 2 3
10 11 14 13 14 14 15 13 11 13 11 10 10 10 11 10 10 10 11 11 11 13 13 12 11 11 8 7 6 6 6 6 6 6 6 6 6 7 7 8 7 9 10 9 9 8 7 6 4 2 2 3
8 10 13 12 15 15 15 15 14 13 13 12 10 9 9 9 7 6 6 7 8 11 11 12 13 12 11 6 6 6 5 5 5 6 6 7 9 9 8 8 7 9 10 9 9 8 6 5 1 3 3 1
6 7 10 10 10 10 11 12 11 9 9 8 7 8 6 5 5 5 5 5 7 7 9 11 13 13 14 14 13 13 13 7 5 6 7 7 7 6 6 4 1 3 5 8 7 6 6 1 2 2 2 1
6 9 8 8 7 7 9 8 6 6 8 6 6 6 6 4 4 5 5 6 6 8 12 10 11 13 13 13 12 13 13 14 14 11 9 7 6 5 2 1 1 1 1 2 2 1 1 1 2 2 2 1
7 7 8 7 7 6 6 6 5 5 6 6 7 6 5 5 5 5 6 6 6 6 6 8 10 10 10 10 10 8 9 11 10 9 7 5 2 1 1 2 2 1 0 0 1 1 1 1 2 1 1 1
6 6 6 6 6 5 4 4 5 5 5 5 6 6 5 5 5 4 3 3 3 3 3 3 4 4 3 4 5 4 4 3 3 1 2 1 1 3 2 3 3 2 1 0 0 1 1 1 1 1 1 1
6 7 7 7 6 6 5 4 4 4 5 5 5 5 5 5 5 4 4 4 3 3 3 3 3 3 3 3 3 2 2 2 1 1 1 2 2 2 2 3 3 2 2 1 0 1 1 1 1 1 1 1
6 6 6 6 6 7 5 4 5 4 4 4 5 5 5 5 4 4 4 4 4 4 3 3 3 2 2 2 2 1 1 2 1 1 2 2 2 2 2 2 2 1 1 1 1 0 0 1 0 0 0 1
5 5 5 5 6 5 5 5 4 4 3 4 4 4 3 4 4 4 4 4 4 3 3 3 3 2 2 1 1 1 1 1 1 1 1 1 1 1 1 1 1 1 1 1 1 0 0 0 1 0 0 0
5 5 5 5 5 5 5 4 4 4 4 3 3 3 3 4 4 4 4 4 3 3 3 3 2 1 1 0 1 0 0 0 0 1 1 1 1 1 1 1 0 1 1 1 0 1 1 1 1 1 1 1
5 5 5 5 4 5 4 4 4 4 4 3 3 3 3 2 3 3 3 3 2 3 3 2 1 1 1 0 0 1 1 0 1 1 1 1 1 1 1 1 0 1 0 1 1 1 1 1 2 1 2 1
5 5 5 4 4 4 4 5 4 4 3 3 3 3 3 3 3 3 3 3 2 2 2 1 1 1 0 2 1 1 1 0 1 1 2 1 2 1 1 1 0 2 1 1 1 1 1 1 2 2 2 2
5 4 4 5 4 4 4 4 4 4 3 3 3 3 3 3 3 3 3 3 2 2 1 0 1 1 1 1 1 1 0 0 0 1 0 1 2 2 2 1 1 1 2 2 1 1 2 2 2 2 2 2
4 4 4 4 4 4 4 4 4 4 4 4 4 4 4 4 4 3 3 2 2 2 1 1 0 1 1 1 0 1 1 1 1 1 1 1 1 2 2 2 2 1 3 3 2 2 2 2 3 3 3 3
4 4 4 4 5 5 4 4 4 4 4 4 4 4 5 5 5 4 3 2 2 1 1 1 0 0 1 0 0 1 2 2 2 1 1 1 2 1 3 3 3 3 3 2 2 2 2 3 3 3 3 3
5 5 5 5 5 5 5 5 5 6 6 6 5 4 5 6 5 5 5 4 3 2 2 1 1 0 1 1 1 1 1 1 1 1 2 2 2 3 3 3 4 4 4 4 3 3 3 3 3 3 4 4
6 6 6 6 7 6 7 7 7 7 6 5 5 5 5 6 5 5 5 4 4 3 2 2 2 2 2 1 1 1 0 2 2 1 2 2 3 4 4 4 4 3 4 4 5 4 4 4 4 4 4 4
8 8 8 8 8 9 8 8 7 7 7 7 7 7 7 7 6 6 6 5 4 3 3 3 4 4 4 2 1 1 1 2 2 1 2 3 2 3 5 5 6 5 5 5 5 5 5 5 5 5 5 5
7 8 9 9 9 10 10 10 8 8 8 8 8 8 7 7 6 6 6 5 4 3 3 3 3 4 4 3 3 2 1 2 2 2 3 4 2 3 4 5 5 5 5 5 5 6 6 7 6 6 6 6
9 10 9 9 10 10 10 10 10 9 9 9 9 9 9 9 8 8 8 8 6 5 4 4 4 4 5 4 3 3 3 2 2 2 3 4 4 2 4 5 5 5 6 6 6 6 8 7 8 6 6 6
6 7 8 9 9 10 10 10 10 11 10 10 10 10 10 10 10 10 10 10 9 8 6 5 5 5 5 4 4 4 4 4 4 5 5 4 4 5 4 4 4 4 5 6 7 8 8 8 8 8 7 8
6 8 9 9 10 10 9 10 10 11 10 10 10 11 11 11 10 11 11 12 11 10 8 7 7 7 7 5 5 4 5 5 4 4 4 4 4 4 5 5 2 2 4 6 6 6 6 6 6 7 8 9
9 9 8 9 9 9 9 9 9 10 10 10 10 12 12 11 12 12 12 11 11 11 11 9 8 9 8 8 6 5 5 6 5 6 6 5 3 1 2 4 2 3 5 5 4 7 7 7 7 7 6 7
10 10 10 11 11 11 11 11 10 11 11 11 12 13 13 12 12 12 12 13 12 10 11 11 9 9 8 9 8 7 7 8 9 8 8 7 4 3 3 4 3 2 3 3 4 4 5 6 5 2 4 6
14 14 14 14 13 12 11 10 10 12 12 12 13 14 13 13 12 13 12 13 12 11 12 12 11 9 9 9 9 8 8 9 9 9 8 8 5 4 3 2 2 2 2 2 4 4 2 3 4 7 5 1
9 9 11 11 11 11 12 11 10 10 11 11 11 11 13 13 13 13 13 13 14 12 12 12 11 10 10 10 10 9 9 8 9 9 8 9 7 6 4 4 3 4 1 1 2 3 5 4 4 4 3 9
11 11 10 8 8 9 9 10 10 11 10 10 11 11 10 13 13 13 13 13 13 13 12 12 12 11 9 9 9 9 9 9 9 11 11 10 9 8 7 5 5 4 2 1 2 2 4 4 5 6 7 8
11 13 12 14 13 12 11 11 10 9 9 9 9 9 10 10 12 13 13 13 13 13 13 12 12 12 11 10 10 8 8 9 10 9 10 9 10 9 8 8 5 6 5 5 2 0 2 4 5 4 5 6
Wind_Direction
109 113 121 120 111 94 90 86 87 90 89 83 76 65 55 57 58 58 55 58 58 56 70 70 75 80 88 80 75 74 77 88 98 98 96 93 82 80 79 77 74 68 54 55 53 48 43 32 24 12 339 117
106 105 100 102 103 107 102 99 91 86 89 87 80 75 66 57 61 65 59 59 59 56 51 47 49 74 79 80 79 77 76 80 86 91 92 85 80 81 78 75 74 58 54 53 48 45 36 29 19 15 351 97
107 105 104 107 105 95 89 87 94 89 84 83 81 81 79 68 63 65 64 59 59 57 48 37 49 40 83 76 78 84 77 75 73 77 83 87 79 76 73 68 67 51 53 54 50 42 32 19 14 2 17 61
126 112 108 107 106 105 105 101 96 97 89 81 83 83 81 82 84 80 78 74 67 59 54 39 35 39 67 80 85 81 75 77 77 87 86 80 77 66 65 63 55 43 47 46 45 39 22 10 333 50 66 60
119 115 114 117 115 115 115 114 111 107 103 97 94 93 92 97 83 80 80 87 84 71 63 47 44 37 32 91 87 78 73 70 82 91 85 81 66 56 60 65 58 44 39 40 37 25 12 321 47 52 45 36
116 128 128 128 127 124 121 119 120 114 113 112 113 116 107 92 96 86 80 84 84 81 73 63 52 45 49 57 66 64 47 42 95 87 81 70 57 51 51 27 338 88 67 47 28 17 332 309 63 60 50 57
137 139 136 131 119 112 111 112 99 109 120 123 116 110 114 108 93 89 77 56 61 84 73 70 65 63 57 57 69 75 72 57 52 62 65 63 63 55 29 323 19 47 19 92 75 295 360 54 41 38 36 86
144 141 139 138 133 128 128 125 118 116 119 124 122 117 111 106 97 102 101 107 102 118 108 95 85 81 77 70 61 81 93 80 69 79 78 68 53 187 349 11 4 20 57 49 41 65 66 68 58 28 36 51
147 139 137 135 131 125 126 124 125 120 113 114 121 119 115 109 114 109 104 93 92 79 90 93 94 98 91 91 90 59 99 105 112 99 42 78 331 8 7 4 9 346 21 81 99 60 66 89 70 79 49 36
135 145 147 144 141 135 127 120 112 118 125 129 129 123 116 117 114 107 101 100 92 87 80 84 84 87 102 107 107 94 94 93 66 21 28 17 8 7 17 7 6 1 346 19 330 66 55 48 98 107 60 37
146 158 149 146 146 145 139 135 134 133 133 122 120 123 130 139 132 122 117 107 96 89 88 86 81 88 98 112 108 97 98 74 40 353 8 8 17 12 11 13 8 16 6 356 355 60 62 14 38 102 41 50
152 141 134 127 133 148 133 140 135 126 110 105 111 118 122 128 128 130 120 116 116 108 95 85 86 103 112 115 85 82 114 97 10 15 360 11 7 321 357 18 346 10 15 355 318 313 301 324 255 327 350 25
143 137 136 140 149 134 139 143 120 99 99 86 78 71 84 103 118 120 124 124 123 123 107 114 125 129 95 92 103 173 165 200 286 320 337 306 299 315 307 287 238 316 10 295 360 317 239 249 263 247 255 289
141 144 140 141 134 120 135 103 92 102 88 86 93 85 65 57 114 131 129 120 116 124 115 112 113 159 164 171 252 260 258 290 297 302 278 274 260 267 256 261 10 288 248 291 324 305 312 275 256 247 248 268
142 138 141 131 124 126 114 106 107 90 89 88 78 77 66 63 47 78 93 109 103 94 113 124 178 228 189 235 216 253 275 28 322 298 283 311 297 282 287 297 339 279 280 255 235 248 276 292 276 268 269 260
129 130 117 116 116 103 96 104 99 93 89 77 69 59 55 57 63 67 74 75 84 76 91 80 346 292 259 247 198 230 264 59 48 318 356 318 321 308 296 291 257 284 283 268 257 248 247 249 258 257 257 252
120 109 108 108 98 98 97 102 101 96 88 77 66 51 40 48 51 53 64 74 74 75 70 64 359 269 258 249 202 142 107 131 188 209 211 195 244 263 276 281 280 243 275 279 273 277 276 275 258 256 258 250
119 111 100 91 93 91 94 88 85 80 79 73 64 51 40 42 41 36 39 46 67 42 59 74 66 311 262 252 150 190 182 204 205 227 255 271 263 273 288 295 295 299 290 279 278 270 258 270 273 265 255 258
103 100 100 96 88 78 70 69 66 59 55 54 53 53 49 40 40 34 28 15 14 26 17 32 44 342 340 23 299 241 206 249 209 246 259 267 284 294 290 287 298 291 291 291 285 276 262 260 258 252 261 254
90 87 81 75 69 70 60 64 61 57 58 56 55 55 54 42 41 36 34 26 9 2 6 357 360 12 19 10 276 276 211 245 248 255 273 275 292 295 291 295 293 291 289 288 283 278 272 269 260 263 252 246
78 78 78 75 70 67 62 61 59 56 54 52 48 45 41 35 36 35 30 26 19 14 15 9 6 15 1 342 306 264 262 264 277 272 272 282 268 290 305 305 298 293 288 287 290 284 271 267 261 259 259 248
88 84 81 77 72 67 65 60 59 57 53 51 47 45 42 37 46 40 36 32 25 37 37 33 28 16 6 343 327 308 273 274 304 282 282 286 278 286 291 294 301 304 306 306 299 291 283 275 262 260 258 255
94 91 90 86 79 72 68 61 53 51 52 47 44 40 36 34 35 33 30 27 25 25 29 42 42 34 13 353 346 331 318 301 282 289 290 297 301 292 285 299 303 304 308 302 288 286 282 277 268 266 262 263
106 110 106 99 90 76 67 64 59 53 52 48 45 38 38 37 37 31 29 26 26 27 25 29 36 39 32 16 358 353 352 355 8 352 334 318 316 305 292 266 281 297 299 294 290 278 275 272 267 260 257 255
114 110 95 80 77 78 71 68 66 61 55 51 46 40 40 39 37 32 32 28 28 25 23 27 29 29 31 24 21 16 19 13 7 5 349 334 315 312 309 299 295 314 302 296 287 272 272 280 264 254 253 251
60 60 73 86 81 82 74 69 65 64 55 53 48 44 41 39 36 37 36 32 30 30 27 25 27 28 25 19 19 27 30 28 28 20 17 353 320 296 296 299 326 328 315 289 304 320 309 299 275 242 243 246
64 69 76 86 90 88 85 74 73 72 66 58 54 48 43 39 37 36 37 34 34 33 28 27 27 28 26 24 17 23 28 28 26 19 19 10 2 329 320 289 304 303 308 303 312 298 294 291 311 220 226 222
70 76 81 80 82 81 82 85 80 73 65 57 53 49 43 40 37 37 38 36 36 38 34 30 27 26 26 25 23 26 30 28 26 17 15 7 3 353 324 324 334 51 323 308 314 303 293 320 318 303 276 8
72 89 92 94 93 89 84 73 66 63 56 53 52 52 44 39 37 39 39 37 36 37 36 33 30 27 26 26 24 26 29 29 27 20 15 7 359 5 346 326 316 314 308 294 306 298 303 283 240 248 307 337
53 55 58 63 70 68 64 61 50 50 50 48 48 50 52 46 41 41 41 38 37 36 35 34 31 30 28 28 28 26 27 25 23 22 19 13 3 3 360 335 309 315 308 240 275 265 268 295 300 321 322 324
55 59 59 63 65 66 68 73 66 62 59 60 59 57 54 52 46 41 41 40 37 36 33 35 32 30 30 29 29 26 27 26 21 20 19 12 15 10 8 360 343 337 332 327 273 253 303 304 297 301 298 276